Location: Misciano
(43.5000°N, 11.9500°E)
Time: 21:20:26
(UTC+00:00)

SL-16 R/B - Pass Details

Date: 13 August 2020
Orbit: 843 x 845 km, 71.0° (Epoch: 22 September)

Event Time Altitude Azimuth Distance (km) Brightness Sun altitude
Rises 22:08:45 0° 319° (NW) 3,413 6.3 -30.1°
Reaches altitude 10° 22:11:58 10° 301° (WNW) 2,472 5.2 -30.3°
Maximum altitude 22:15:35 18° 261° (W) 1,978 4.2 -30.5°
Enters shadow 22:15:46 18° 259° (W) 1,979 4.1 -30.5°
